Location: Vancouver
(49.2500°N, 123.1330°W)
Time: 10:42:54
(UTC-08:00)

AO-27 - Visible Passes

Search period start: 20 January 2018 00:00
Search period end: 30 January 2018 00:00
Orbit: 785 x 798 km, 98.8° (Epoch: 19 January)

Date Brightness Start Highest point End Pass type
(mag) Time Alt. Az. Time Alt. Az. Time Alt. Az.
20 Jan 9.6 04:55:48 10° N 04:57:10 18° N 04:57:10 18° N visible
21 Jan 9.8 04:26:37 10° NNE 04:27:51 18° NNE 04:27:51 18° NNE visible
21 Jan 9.5 06:07:25 10° NNW 06:08:36 14° NNW 06:08:36 14° NNW visible
22 Jan 10.1 03:57:38 10° NNE 03:58:31 15° NNE 03:58:31 15° NNE visible
22 Jan 9.4 05:37:39 10° N 05:39:17 18° NNW 05:39:17 18° NNW visible
23 Jan 10.5 03:28:53 10° NNE 03:29:12 12° NE 03:29:12 12° NE visible
23 Jan 9.4 05:08:13 10° N 05:09:58 21° N 05:09:58 21° N visible
24 Jan 9.5 04:38:57 10° NNE 04:40:39 21° N 04:40:39 21° N visible
24 Jan 9.5 06:20:12 10° NNW 06:21:24 13° NW 06:21:24 13° NW visible
25 Jan 9.8 04:09:53 10° NNE 04:11:20 19° NNE 04:11:20 19° NNE visible
25 Jan 9.3 05:50:12 10° N 05:52:06 18° NNW 05:52:06 18° NNW visible
26 Jan 10.2 03:41:01 10° NNE 03:42:01 15° NE 03:42:01 15° NE visible
26 Jan 9.2 05:20:39 10° N 05:22:47 22° NNW 05:22:47 22° NNW visible
27 Jan 10.6 03:12:30 10° NE 03:12:43 11° NE 03:12:43 11° NE visible
27 Jan 9.2 04:51:19 10° N 04:53:29 25° N 04:53:29 25° N visible
27 Jan 9.6 06:33:14 10° NNW 06:34:14 11° NW 06:34:14 11° NW visible
28 Jan 9.4 04:22:10 10° NNE 04:24:10 24° NNE 04:24:10 24° NNE visible
28 Jan 9.3 06:02:48 10° NNW 06:04:56 17° NW 06:04:56 17° NW visible
29 Jan 9.8 03:53:13 10° NNE 03:54:53 20° NNE 03:54:53 20° NNE visible
29 Jan 9.0 05:33:07 10° N 05:35:38 23° NNW 05:35:38 23° NNW visible
